User: anonymous   Login
Location: Be Tobo
(6.6442°N, 10.6239°W)
Time: 02:43:41
(UTC+00:00)
Language:

YAOGAN 1 - Orbit

View from above orbital plane
View from above orbital plane
View from above satellite
View from above satellite

Ground track
Ground track

The orbit data is extracted from the following two-line orbital elements,

1 29092U 06015A   20338.05463520  .00000177  00000-0  28239-4 0  9998
2 29092  97.9273   1.2137 0001389  89.6506 270.4867 14.83108579789723
Epoch (UTC): 03 December 2020 01:18:40
Eccentricity: 0.0001389
inclination: 97.9273°
perigee height: 618 km
apogee height: 620 km
right ascension of ascending node: 1.2137°
argument of perigee: 89.6506°
revolutions per day: 14.83108579
mean anomaly at epoch: 270.4867°
orbit number at epoch: 78972

The dashed part of the orbit path shows where the satellite is in the earth's shadow,  

DLR